[[{"header":{"parameterUnit":"m.s-1","parameterCategory":2,"la1":30.2991,"la2":30.254,"lo1":-89.0895,"lo2":-89.0444,"dy":0.0017,"dx":0.0017,"nx":28,"ny":28,"refTime":"2023-09-09T21:00:00:Z","depth":"0","parameterNumber":2,"parameterNumberName":"U-component_of_CURRENTS"},"data":[0,0,0,0,0,0,0,0,0,0,0,0,0,0,0,0,0,0,0,0,0,0,0,0,0,0,0,0,0,0,0,0,0,0,0,0,0,0,0,0,0,0,0,0,0,0,0,0,0,0,0,0,0,0,0,0,0,0,0.2741,0.2741,0,0.2703,0.2702,0.2701,0.2687,0.2687,0.2688,0.2689,0.2674,0.2673,0.2672,0,0,0,0,0,0,0,0,0,0,0,0,0,0.2709,0.271,0.2741,0.2741,0.2741,0.2703,0.2702,0.2701,0.2687,0.2687,0.2688,0.2689,0.2674,0.2673,0.2672,0,0,0,0,0,0,0,0,0,0,0,0,0,0.2697,0.271,0.2741,0.2733,0.2732,0.2703,0.2702,0.2701,0.2687,0.2688,0.2688,0.2689,0.2674,0.2673,0.2671,0.2645,0,0,0.2667,0.2667,0,0,0,0,0,0,0,0,0.2698,0.2698,0.2734,0.2733,0.2733,0.2705,0.2686,0.2685,0.2686,0.2698,0.2689,0.269,0.2689,0.2686,0.267,0.2645,0.2644,0.2667,0.2666,0.2666,0.2665,0,0,0,0,0,0,0,0.2699,0.2699,0.2721,0.2734,0.2733,0.27,0.27,0.2685,0.2686,0.2697,0.2698,0.2701,0.2688,0.2671,0.2669,0.2644,0.2667,0.2666,0.2665,0.2664,0.2659,0.266,0,0,0,0,0,0,0.2718,0.27,0.2722,0.272,0.2723,0.2701,0.27,0.2709,0.2685,0.2684,0.2701,0.2701,0.2673,0.2671,0.2669,0.2701,0.2666,0.2664,0.2663,0.2659,0.2659,0.266,0,0,0,0,0,0,0.2718,0.2721,0.2724,0.2713,0.2712,0.2702,0.2711,0.2708,0.2699,0.2689,0.2687,0.2697,0.2674,0.2671,0.268,0.2699,0.2664,0.2662,0.2658,0.2659,0.266,0.2726,0,0,0,0,0,0,0.2717,0.2721,0.2715,0.2715,0.2713,0.2717,0.271,0.2707,0.2702,0.2702,0.2685,0.2684,0.2674,0.2682,0.2678,0.2696,0.2661,0.2657,0.2658,0.2659,0.2722,0.2729,0.2734,0,0,0,0,0,0.2716,0.2711,0.2715,0.2717,0.2713,0.2718,0.2713,0.2705,0.2702,0.2699,0.27,0.2685,0.2688,0.2681,0.2677,0.2695,0.2656,0.2658,0.2659,0.272,0.2727,0.2734,0,0,0,0,0,0,0.2688,0.271,0.2714,0.2714,0.2722,0.2718,0.2709,0.2707,0.2701,0.2704,0.2692,0.2691,0.2709,0.2688,0.2682,0.2697,0.2669,0.267,0.2717,0.2724,0.2729,0.2757,0.266,0,0,0,0,0,0.2683,0.269,0.2706,0.2707,0.2713,0.2711,0.2706,0.271,0.2712,0.2709,0.2701,0.2697,0.2708,0.2706,0.2705,0.2705,0.2706,0.2713,0.2719,0.2724,0.2743,0.2769,0.278,0.2665,0.2665,0.2665,0,0,0.2678,0.2686,0.2692,0.2702,0.2704,0.2717,0.2709,0.2715,0.2729,0.2709,0.2715,0.2718,0.2714,0.2729,0.2733,0.2715,0.2755,0.2726,0.2731,0.2747,0.2772,0.2784,0.2794,0.2666,0.2666,0.2666,0,0,0.2673,0.2678,0.2685,0.2694,0.2708,0.2714,0.2723,0.2728,0.2732,0.2743,0.2745,0.2771,0.2752,0.2774,0.2779,0.2812,0.279,0.2796,0.2842,0.2867,0.2877,0.2886,0.2895,0.2904,0.2793,0.2793,0.2793,0,0.2666,0.2675,0.2685,0.2695,0.2707,0.2721,0.2737,0.2743,0.2751,0.2768,0.2755,0.2784,0.2783,0.2831,0.2849,0.283,0.2827,0.2818,0.2877,0.2886,0.2894,0.2901,0.291,0.2796,0.2796,0.2795,0.2795,0,0.267,0.2677,0.2683,0.2708,0.2721,0.2737,0.2765,0.2779,0.2788,0.2803,0.2847,0.2855,0.2876,0.288,0.2877,0.2935,0.2909,0.2888,0.2864,0.291,0.2913,0.2922,0.2801,0.28,0.2799,0.2798,0,0,0.267,0.2685,0.2688,0.2698,0.2732,0.2746,0.2784,0.2825,0.2855,0.2873,0.2913,0.2954,0.2964,0.2973,0.2974,0.3003,0.306,0.2971,0.2971,0.2988,0.3102,0.2945,0.2939,0.3044,0.3046,0.3047,0.3079,0,0.2674,0.2686,0.2701,0.2727,0.2741,0.2775,0.2809,0.2852,0.2882,0.292,0.2964,0.2999,0.2995,0.3012,0.3046,0.3058,0.3087,0.3053,0.3048,0.3048,0.291,0.2945,0.2796,0.2799,0.3087,0.3088,0.3089,0,0.2681,0.2686,0.2704,0.274,0.2752,0.2772,0.2839,0.287,0.2941,0.2968,0.3024,0.3048,0.3116,0.3092,0.3156,0.3129,0.313,0.3135,0.3135,0.2975,0.2907,0.28,0.2803,0.2748,0.3102,0.3101,0.31,0,0.2675,0.2695,0.2707,0.2717,0.2759,0.2782,0.2813,0.2883,0.2922,0.3,0.3034,0.3108,0.3135,0.3172,0.3184,0.3174,0.3231,0.3211,0.3077,0.3065,0.2932,0.2903,0.2888,0.3263,0.3263,0.3263,0.3263,0,0.2679,0.2688,0.2698,0.2706,0.273,0.2769,0.2816,0.2861,0.2935,0.2981,0.3051,0.3091,0.3155,0.3189,0.3204,0.3154,0.3245,0.3097,0.3067,0.2945,0.2919,0.2855,0.2831,0.3264,0.3264,0.3264,0.3263,0,0.267,0.2678,0.2687,0.2716,0.2724,0.2741,0.2802,0.284,0.2912,0.2972,0.3002,0.3087,0.3113,0.3156,0.3201,0.3146,0.3032,0.3102,0.2941,0.2889,0.2659,0.2643,0.248,0.2418,0.2951,0.2948,0.2945,0,0.2659,0.2662,0.2681,0.2684,0.2691,0.2719,0.2745,0.2818,0.2853,0.2959,0.2979,0.3035,0.3054,0.3045,0.2968,0.2938,0.2903,0.2762,0.271,0.2628,0.2592,0.2508,0.2465,0.2573,0.2567,0.2562,0.2558,0,0.264,0.2649,0.2663,0.2661,0.2671,0.2688,0.2721,0.2749,0.2833,0.2871,0.2899,0.2929,0.2893,0.2766,0.2705,0.2674,0.2593,0.2654,0.2633,0.2339,0.2187,0.2118,0.2573,0.2515,0.252,0.2523,0.2525,0.2527,0.2622,0.2622,0.2635,0.2622,0.2634,0.2633,0.2612,0.2656,0.2682,0.2675,0.276,0.2702,0.2613,0.2482,0.2431,0.2215,0.2262,0.2129,0.2134,0.2072,0.1942,0.2274,0.213,0.2132,0.2134,0.2135,0.2137,0,0.257,0.2576,0.2586,0.2562,0.2527,0.2557,0.2566,0.2509,0.2469,0.2494,0.2463,0.232,0.2184,0.2102,0.188,0.1745,0.1697,0.169,0.1599,0.1601,0.196,0.1874,0.1588,0.1588,0.1588,0.1588,0.1588,0.1588,0.2546,0.2525,0.2517,0.2431,0.241,0.2324,0.2293,0.2232,0.2209,0.2062,0.1948,0.191,0.1873,0.1678,0.1494,0.1448,0.1375,0.1221,0.1297,0.1614,0.1658,0.17,0.1616,0.1281,0.128,0.0871,0.0868,0.0865]},{"header":{"parameterUnit":"m.s-1","parameterCategory":2,"la1":30.2991,"la2":30.254,"lo1":-89.0895,"lo2":-89.0444,"dy":0.0017,"dx":0.0017,"nx":28,"ny":28,"refTime":"2023-09-09T21:00:00:Z","depth":"0","parameterNumber":3,"parameterNumberName":"V-component_of_CURRENTS"},"data":[0,0,0,0,0,0,0,0,0,0,0,0,0,0,0,0,0,0,0,0,0,0,0,0,0,0,0,0,0,0,0,0,0,0,0,0,0,0,0,0,0,0,0,0,0,0,0,0,0,0,0,0,0,0,0,0,0,0,0.0223,0.0223,0,0.0215,0.0215,0.0215,0.0203,0.0203,0.0203,0.0203,0.0186,0.0186,0.0185,0,0,0,0,0,0,0,0,0,0,0,0,0,0.0193,0.0193,0.0223,0.0223,0.0223,0.0215,0.0215,0.0215,0.0203,0.0203,0.0203,0.0203,0.0186,0.0186,0.0185,0,0,0,0,0,0,0,0,0,0,0,0,0,0.0196,0.0194,0.0223,0.0218,0.0217,0.0216,0.0215,0.0215,0.0203,0.0203,0.0203,0.0203,0.0186,0.0186,0.0185,0.0181,0,0,0.0183,0.0183,0,0,0,0,0,0,0,0,0.0196,0.0197,0.0218,0.0218,0.0218,0.0212,0.0198,0.0204,0.0203,0.0206,0.0203,0.0203,0.0195,0.0194,0.019,0.018,0.018,0.0183,0.0182,0.0182,0.0182,0,0,0,0,0,0,0,0.0195,0.0197,0.0217,0.0218,0.0218,0.0205,0.0205,0.0199,0.0199,0.0206,0.0206,0.0208,0.0195,0.019,0.0189,0.0179,0.0183,0.0182,0.0182,0.0182,0.0172,0.0172,0,0,0,0,0,0,0.0203,0.0197,0.0218,0.0217,0.0209,0.0206,0.0206,0.0212,0.0199,0.0198,0.0208,0.0208,0.0191,0.019,0.0188,0.02,0.0182,0.0182,0.0181,0.0172,0.0172,0.0172,0,0,0,0,0,0,0.0202,0.0205,0.0218,0.0208,0.0209,0.0207,0.0213,0.0212,0.021,0.0202,0.02,0.0208,0.0191,0.0189,0.0188,0.0198,0.0181,0.0181,0.0172,0.0172,0.0172,0.0211,0,0,0,0,0,0,0.0201,0.0205,0.0209,0.0209,0.021,0.0225,0.0214,0.0212,0.0212,0.0211,0.0201,0.0199,0.0191,0.0189,0.0187,0.0197,0.018,0.0172,0.0172,0.0172,0.021,0.0213,0.0215,0,0,0,0,0,0.02,0.0211,0.021,0.0212,0.0218,0.0226,0.0225,0.0221,0.0212,0.0217,0.0207,0.0199,0.0189,0.0189,0.0187,0.0196,0.0171,0.0172,0.0172,0.0209,0.0212,0.0215,0,0,0,0,0,0,0.0197,0.0211,0.0209,0.0222,0.0227,0.0225,0.023,0.0223,0.0218,0.0216,0.0202,0.02,0.0202,0.0192,0.0191,0.0193,0.0179,0.0179,0.0207,0.021,0.0213,0.0246,0.018,0,0,0,0,0,0.02,0.0214,0.022,0.0231,0.0235,0.0231,0.0232,0.0231,0.0227,0.0225,0.0216,0.0206,0.0201,0.02,0.0193,0.0195,0.0201,0.0199,0.0202,0.0204,0.0229,0.0238,0.0244,0.0173,0.0173,0.0173,0,0,0.0201,0.0211,0.0218,0.0231,0.0234,0.0249,0.0232,0.024,0.0251,0.0224,0.0232,0.0215,0.0202,0.0206,0.0206,0.02,0.0225,0.0205,0.0207,0.0231,0.0239,0.0246,0.0252,0.0174,0.0174,0.0174,0,0,0.0219,0.0221,0.0243,0.0251,0.0262,0.0261,0.0265,0.0265,0.0264,0.027,0.0251,0.0247,0.0235,0.0234,0.023,0.0245,0.0237,0.0231,0.0277,0.0284,0.0291,0.0297,0.0307,0.0314,0.0235,0.0235,0.0235,0,0.022,0.0249,0.0248,0.0271,0.0283,0.027,0.0294,0.0292,0.0289,0.0299,0.028,0.0278,0.0256,0.0276,0.0274,0.0254,0.0256,0.0265,0.029,0.0296,0.0302,0.0311,0.0317,0.0237,0.0237,0.0237,0.0236,0,0.0259,0.0279,0.0292,0.032,0.0329,0.0347,0.0349,0.0355,0.0348,0.0349,0.0364,0.034,0.0347,0.0326,0.0303,0.0328,0.0316,0.0291,0.0287,0.0312,0.0319,0.0325,0.024,0.0239,0.0239,0.0238,0,0,0.0273,0.0313,0.0319,0.0344,0.0358,0.0375,0.0393,0.0416,0.0444,0.0431,0.0473,0.0444,0.0436,0.0431,0.0401,0.0399,0.0419,0.0362,0.0361,0.0382,0.0442,0.0404,0.0407,0.0396,0.0397,0.0398,0.043,0,0.0307,0.0361,0.037,0.0419,0.0447,0.0446,0.0471,0.0487,0.0493,0.0527,0.0513,0.0534,0.0474,0.0482,0.0472,0.0435,0.0439,0.0414,0.0407,0.0408,0.0379,0.0415,0.0436,0.0464,0.0436,0.0437,0.0438,0,0.0348,0.0381,0.0434,0.0485,0.0498,0.0522,0.0571,0.0593,0.0625,0.0633,0.0653,0.0642,0.0649,0.0592,0.0567,0.0553,0.0509,0.0475,0.0474,0.0438,0.0383,0.0435,0.0477,0.0434,0.0448,0.0447,0.0446,0,0.0374,0.0429,0.0475,0.0491,0.0539,0.0568,0.0595,0.0628,0.0666,0.0711,0.075,0.0748,0.0759,0.0715,0.063,0.0606,0.06,0.0559,0.0492,0.0489,0.0508,0.0504,0.0521,0.0557,0.0557,0.0556,0.0556,0,0.0411,0.0453,0.0494,0.0522,0.0589,0.0608,0.068,0.0705,0.076,0.083,0.0814,0.0867,0.0788,0.0767,0.0684,0.0612,0.0644,0.0523,0.0502,0.0519,0.0516,0.0478,0.0441,0.0558,0.0557,0.0557,0.0557,0,0.044,0.0463,0.0524,0.0581,0.0604,0.0655,0.0737,0.0792,0.0833,0.0929,0.0954,0.0964,0.0944,0.0858,0.0784,0.0683,0.059,0.0577,0.06,0.058,0.0468,0.0432,0.0436,0.0419,0.0529,0.0529,0.0528,0,0.0464,0.0496,0.0567,0.061,0.064,0.0713,0.077,0.0824,0.0887,0.0994,0.1049,0.1061,0.1093,0.0969,0.0801,0.0677,0.0605,0.0582,0.0536,0.0486,0.0432,0.041,0.0394,0.0579,0.0579,0.0579,0.0579,0,0.0512,0.0531,0.058,0.0659,0.0723,0.0802,0.0885,0.0946,0.1029,0.1119,0.1222,0.1264,0.116,0.1044,0.0842,0.0737,0.0562,0.0575,0.0532,0.0487,0.0461,0.0426,0.0529,0.0579,0.0579,0.0579,0.0579,0.0579,0.0548,0.0586,0.0642,0.0719,0.0791,0.088,0.0953,0.1052,0.117,0.1305,0.1332,0.1412,0.1243,0.0985,0.0836,0.0571,0.0567,0.0493,0.0461,0.0448,0.0415,0.051,0.0518,0.0518,0.0518,0.0518,0.0517,0,0.059,0.0631,0.0703,0.0789,0.0865,0.0898,0.1025,0.1106,0.1252,0.1377,0.1473,0.1444,0.1252,0.1018,0.067,0.0497,0.0439,0.0406,0.0402,0.0394,0.0499,0.0482,0.0474,0.0474,0.0474,0.0474,0.0474,0.0474,0.0616,0.068,0.0709,0.083,0.0894,0.0999,0.1071,0.1201,0.1313,0.1459,0.1513,0.1535,0.1383,0.084,0.0508,0.0429,0.0339,0.03,0.025,0.0334,0.034,0.0346,0.0324,0.0282,0.0282,0.0186,0.0185,0.0184]}],[{"header":{"parameterUnit":"m.s-1","parameterCategory":2,"la1":30.2991,"la2":30.254,"lo1":-89.0895,"lo2":-89.0444,"dy":0.0017,"dx":0.0017,"nx":28,"ny":28,"refTime":"2023-09-09T21:00:00:Z","depth":"2","parameterNumber":2,"parameterNumberName":"U-component_of_CURRENTS"},"data":[0,0,0,0,0,0,0,0,0,0,0,0,0,0,0,0,0,0,0,0,0,0,0,0,0,0,0,0,0,0,0,0,0,0,0,0,0,0,0,0,0,0,0,0,0,0,0,0,0,0,0,0,0,0,0,0,0,0,0.1831,0.1832,0,0.1866,0.1866,0.1866,0.1864,0.1863,0.1863,0.1863,0.1901,0.1903,0.1904,0,0,0,0,0,0,0,0,0,0,0,0,0,0.1831,0.183,0.1831,0.1832,0.1833,0.1866,0.1866,0.1866,0.1864,0.1863,0.1863,0.1863,0.1901,0.1902,0.1904,0,0,0,0,0,0,0,0,0,0,0,0,0,0.1843,0.183,0.1831,0.1837,0.1838,0.1866,0.1866,0.1866,0.1864,0.1863,0.1863,0.1862,0.19,0.1902,0.1904,0.1925,0,0,0.191,0.1911,0,0,0,0,0,0,0,0,0.1842,0.1842,0.1836,0.1837,0.1838,0.1862,0.188,0.1887,0.1864,0.1852,0.1863,0.1862,0.1891,0.1893,0.1897,0.1927,0.1929,0.191,0.1912,0.1912,0.1913,0,0,0,0,0,0,0,0.1841,0.1841,0.1843,0.1836,0.1838,0.1862,0.1862,0.1882,0.1871,0.1853,0.1853,0.1861,0.1891,0.1895,0.1898,0.1929,0.191,0.1912,0.1913,0.1914,0.2016,0.2017,0,0,0,0,0,0,0.1838,0.184,0.1842,0.1844,0.1842,0.1862,0.1862,0.1853,0.1871,0.1874,0.1861,0.1861,0.1892,0.1896,0.19,0.1945,0.1912,0.1914,0.1915,0.2014,0.2016,0.2018,0,0,0,0,0,0,0.1838,0.1837,0.184,0.1846,0.1848,0.1862,0.1852,0.1854,0.1877,0.1878,0.188,0.1885,0.1892,0.1897,0.1925,0.1946,0.1915,0.1917,0.2013,0.2015,0.2017,0.2024,0,0,0,0,0,0,0.1837,0.1836,0.1844,0.1845,0.1848,0.1868,0.1853,0.1855,0.1882,0.1882,0.1899,0.1901,0.1892,0.1922,0.1927,0.1948,0.1918,0.2011,0.2014,0.2016,0.2022,0.2026,0.203,0,0,0,0,0,0.1837,0.1843,0.1843,0.1845,0.1851,0.187,0.1874,0.1881,0.1884,0.1899,0.1905,0.1901,0.1944,0.1924,0.193,0.1952,0.2009,0.2013,0.2016,0.202,0.2025,0.203,0,0,0,0,0,0,0.1846,0.1843,0.1844,0.1848,0.1865,0.187,0.1887,0.1898,0.1915,0.1911,0.1916,0.1919,0.1953,0.1959,0.1937,0.1993,0.1979,0.1984,0.198,0.1985,0.1989,0.2024,0.192,0,0,0,0,0,0.1852,0.1858,0.186,0.1871,0.1874,0.1887,0.1902,0.1903,0.1914,0.1922,0.1933,0.1948,0.1971,0.1982,0.1998,0.2028,0.2045,0.205,0.2054,0.2057,0.2092,0.2116,0.2125,0.2029,0.2029,0.2029,0,0,0.186,0.1863,0.1866,0.1876,0.1884,0.1896,0.1894,0.1911,0.1928,0.1924,0.1952,0.1965,0.1984,0.201,0.2027,0.2016,0.2092,0.2062,0.2064,0.2098,0.2121,0.213,0.2138,0.2032,0.2031,0.2031,0,0,0.1874,0.1877,0.1882,0.1896,0.191,0.1917,0.1928,0.1937,0.1947,0.198,0.1978,0.2012,0.2043,0.2056,0.207,0.2117,0.2115,0.2118,0.2163,0.2185,0.2193,0.22,0.2219,0.2228,0.2116,0.2116,0.2116,0,0.1886,0.1886,0.1893,0.1902,0.1913,0.1929,0.1936,0.1956,0.1977,0.1996,0.1994,0.2065,0.2073,0.2121,0.2133,0.2127,0.2136,0.2133,0.2188,0.2196,0.2203,0.2222,0.2232,0.2117,0.2117,0.2117,0.2117,0,0.1897,0.1905,0.1911,0.1923,0.194,0.1951,0.1967,0.1993,0.2014,0.2038,0.2097,0.2115,0.2164,0.2166,0.2167,0.2224,0.2212,0.2188,0.217,0.2213,0.223,0.224,0.2118,0.2118,0.2118,0.2117,0,0,0.1893,0.1912,0.1915,0.1926,0.1946,0.1961,0.1992,0.2028,0.2068,0.2106,0.216,0.2212,0.2237,0.2258,0.2259,0.2284,0.2331,0.2263,0.2264,0.2274,0.238,0.2257,0.2256,0.2304,0.2306,0.2308,0.2365,0,0.1897,0.191,0.1921,0.195,0.1953,0.1981,0.2024,0.2064,0.2099,0.2156,0.2202,0.2257,0.2265,0.2289,0.2322,0.2334,0.2361,0.2319,0.2347,0.2349,0.2226,0.2265,0.2071,0.2096,0.2375,0.2376,0.2378,0,0.1897,0.1905,0.1918,0.1963,0.197,0.2004,0.2065,0.2103,0.2182,0.2214,0.228,0.2311,0.2384,0.2366,0.2444,0.2413,0.2416,0.2419,0.242,0.2319,0.2245,0.2103,0.2104,0.2394,0.2393,0.2392,0.2391,0,0.1879,0.1908,0.1919,0.1931,0.1983,0.2014,0.2057,0.2128,0.2163,0.2251,0.2291,0.2376,0.2416,0.2459,0.2475,0.2465,0.2532,0.2508,0.2407,0.2398,0.2251,0.2224,0.2563,0.2563,0.2563,0.2563,0.2563,0,0.1871,0.1887,0.1922,0.1928,0.1977,0.2019,0.2079,0.2137,0.221,0.2257,0.2328,0.2367,0.244,0.2474,0.2496,0.2481,0.2551,0.244,0.241,0.2244,0.2218,0.2493,0.2484,0.2565,0.2565,0.2564,0.2564,0,0.1849,0.1871,0.189,0.1941,0.1965,0.2005,0.208,0.2119,0.2205,0.226,0.229,0.2371,0.2418,0.2464,0.2512,0.2482,0.249,0.2458,0.2256,0.2201,0.2345,0.2336,0.2381,0.2377,0.2374,0.2371,0.2369,0,0.1833,0.1834,0.1881,0.1902,0.1929,0.1986,0.2023,0.2108,0.2134,0.2248,0.2263,0.2332,0.2338,0.2369,0.2338,0.2341,0.2415,0.214,0.2088,0.2362,0.233,0.2326,0.2321,0.1901,0.1896,0.1891,0.1887,0,0.1791,0.1813,0.1828,0.1862,0.1901,0.1931,0.1984,0.2,0.2093,0.2125,0.2153,0.2169,0.2199,0.2089,0.2081,0.206,0.2127,0.2039,0.2388,0.196,0.1909,0.1877,0.1889,0.1844,0.1849,0.1852,0.1854,0.1856,0.1763,0.1767,0.1788,0.1816,0.1851,0.186,0.1845,0.1882,0.1891,0.1913,0.1988,0.1949,0.1947,0.1832,0.1762,0.1712,0.1872,0.1785,0.1801,0.1822,0.1738,0.1682,0.1561,0.1563,0.1565,0.1567,0.1569,0,0.1706,0.1727,0.1739,0.1751,0.1729,0.1788,0.1797,0.1745,0.1695,0.1743,0.1733,0.1565,0.1477,0.1498,0.1351,0.1321,0.1329,0.1264,0.1267,0.1309,0.1347,0.124,0.0931,0.0929,0.0927,0.0925,0,0,0.1698,0.1676,0.1667,0.1612,0.1622,0.1563,0.1546,0.1485,0.1479,0.1407,0.1369,0.146,0.1471,0.1209,0.1145,0.1018,0.1166,0.0971,0.1483,0.1532,0.1568,0.1643,0.1525,0,0,0,0,0]},{"header":{"parameterUnit":"m.s-1","parameterCategory":2,"la1":30.2991,"la2":30.254,"lo1":-89.0895,"lo2":-89.0444,"dy":0.0017,"dx":0.0017,"nx":28,"ny":28,"refTime":"2023-09-09T21:00:00:Z","depth":"2","parameterNumber":3,"parameterNumberName":"V-component_of_CURRENTS"},"data":[0,0,0,0,0,0,0,0,0,0,0,0,0,0,0,0,0,0,0,0,0,0,0,0,0,0,0,0,0,0,0,0,0,0,0,0,0,0,0,0,0,0,0,0,0,0,0,0,0,0,0,0,0,0,0,0,0,0,0.0181,0.0181,0,0.0178,0.0178,0.0178,0.0173,0.0173,0.0173,0.0173,0.016,0.0159,0.0159,0,0,0,0,0,0,0,0,0,0,0,0,0,0.0143,0.0144,0.0181,0.0181,0.0181,0.0178,0.0178,0.0178,0.0173,0.0173,0.0173,0.0173,0.016,0.0159,0.0159,0,0,0,0,0,0,0,0,0,0,0,0,0,0.0151,0.0144,0.0181,0.0179,0.0179,0.0178,0.0178,0.0178,0.0173,0.0173,0.0173,0.0173,0.016,0.0159,0.0159,0.0156,0,0,0.0157,0.0157,0,0,0,0,0,0,0,0,0.0151,0.0152,0.0179,0.0179,0.0179,0.0176,0.016,0.017,0.0173,0.0174,0.0173,0.0173,0.0165,0.0164,0.0162,0.0156,0.0155,0.0157,0.0157,0.0157,0.0157,0,0,0,0,0,0,0,0.015,0.0152,0.0179,0.0179,0.0179,0.0164,0.0166,0.0161,0.0169,0.0174,0.0174,0.0175,0.0165,0.0163,0.0162,0.0155,0.0157,0.0157,0.0157,0.0156,0.0153,0.0153,0,0,0,0,0,0,0.0154,0.0152,0.0179,0.0179,0.0165,0.0165,0.0167,0.0177,0.0169,0.0168,0.0175,0.0175,0.0164,0.0163,0.0162,0.0175,0.0157,0.0156,0.0156,0.0152,0.0153,0.0153,0,0,0,0,0,0,0.0154,0.0157,0.0179,0.0165,0.0167,0.0166,0.0177,0.0177,0.0173,0.017,0.0169,0.0171,0.0164,0.0162,0.0163,0.0174,0.0156,0.0156,0.0152,0.0152,0.0153,0.0192,0,0,0,0,0,0,0.0153,0.0157,0.0163,0.0166,0.0168,0.0185,0.0177,0.0177,0.0174,0.0173,0.0167,0.0166,0.0164,0.0164,0.0163,0.0173,0.0155,0.0152,0.0152,0.0153,0.019,0.0193,0.0196,0,0,0,0,0,0.0152,0.0164,0.0164,0.0167,0.0178,0.0185,0.0185,0.0183,0.0174,0.0178,0.0173,0.0166,0.0165,0.0164,0.0162,0.0173,0.0152,0.0152,0.0153,0.0189,0.0193,0.0196,0,0,0,0,0,0,0.0148,0.0165,0.0164,0.0181,0.0184,0.0185,0.0189,0.0181,0.0179,0.0179,0.0169,0.0168,0.0173,0.0164,0.0163,0.0172,0.0157,0.0157,0.0185,0.0188,0.0191,0.0205,0.0155,0,0,0,0,0,0.015,0.0167,0.0174,0.0186,0.0191,0.0187,0.0187,0.0186,0.0186,0.0185,0.0179,0.0174,0.0174,0.0174,0.0172,0.0176,0.0168,0.018,0.0183,0.0186,0.0195,0.0193,0.0197,0.0154,0.0154,0.0154,0,0,0.015,0.0163,0.017,0.0186,0.0189,0.0203,0.0187,0.0195,0.0204,0.0184,0.0193,0.0183,0.0176,0.0186,0.0186,0.018,0.0193,0.0187,0.0189,0.0197,0.0194,0.0198,0.0202,0.0155,0.0155,0.0155,0,0,0.0165,0.0172,0.0193,0.0201,0.0211,0.0212,0.0214,0.0216,0.0216,0.0222,0.0211,0.021,0.0205,0.0208,0.0207,0.0222,0.0207,0.0216,0.0245,0.0242,0.0246,0.0249,0.0242,0.0244,0.0219,0.0219,0.0219,0,0.0163,0.0193,0.0197,0.0219,0.023,0.0218,0.024,0.0239,0.0238,0.0246,0.0231,0.0233,0.022,0.0239,0.0242,0.0231,0.0223,0.0234,0.0247,0.025,0.0253,0.0244,0.0246,0.0221,0.0221,0.022,0.022,0,0.0196,0.0217,0.023,0.0258,0.0268,0.0284,0.0288,0.0294,0.0288,0.0287,0.0299,0.0284,0.0289,0.0278,0.0263,0.0278,0.0264,0.0251,0.0242,0.026,0.0249,0.0251,0.0224,0.0223,0.0222,0.0222,0,0,0.0206,0.0247,0.0251,0.0276,0.0293,0.0309,0.0326,0.0346,0.0367,0.0354,0.0382,0.0365,0.0355,0.0352,0.0333,0.0324,0.0325,0.0295,0.0294,0.0294,0.0317,0.0297,0.0296,0.0314,0.0314,0.0315,0.0301,0,0.0232,0.0283,0.0295,0.034,0.0368,0.0371,0.0392,0.0406,0.0409,0.043,0.0414,0.0428,0.0384,0.039,0.0374,0.0343,0.0331,0.033,0.0294,0.0293,0.0278,0.0298,0.0309,0.0297,0.0302,0.0302,0.0302,0,0.0267,0.0299,0.0348,0.0398,0.0411,0.0432,0.0475,0.0495,0.0513,0.0517,0.0523,0.0508,0.0503,0.0459,0.0418,0.0419,0.0372,0.0338,0.0337,0.0308,0.0277,0.0279,0.0299,0.0304,0.0304,0.0304,0.0304,0,0.0287,0.034,0.0383,0.0399,0.0446,0.0472,0.0497,0.0522,0.0555,0.0577,0.0603,0.0585,0.0588,0.0532,0.0453,0.044,0.0401,0.0376,0.0315,0.0312,0.0311,0.0307,0.0346,0.0346,0.0346,0.0346,0.0346,0,0.0319,0.0355,0.0398,0.0424,0.0485,0.0505,0.0567,0.0587,0.0628,0.0683,0.0654,0.0686,0.0604,0.0569,0.0487,0.0409,0.0428,0.0328,0.0312,0.0323,0.0321,0.0317,0.0314,0.0346,0.0346,0.0346,0.0346,0,0.0338,0.0362,0.0419,0.0474,0.0498,0.0542,0.0618,0.0665,0.0693,0.0766,0.078,0.0768,0.0726,0.0634,0.0545,0.0461,0.0382,0.0345,0.0358,0.0344,0.0286,0.0285,0.0288,0.0287,0.0286,0.0286,0.0286,0,0.0355,0.0386,0.0456,0.0496,0.0525,0.0593,0.0645,0.0694,0.0749,0.082,0.0862,0.0841,0.0834,0.0692,0.0552,0.0419,0.0387,0.0323,0.0297,0.0299,0.0283,0.0283,0.0282,0.0308,0.0308,0.0308,0.0307,0,0.0392,0.0412,0.0458,0.0536,0.0597,0.0674,0.0752,0.0805,0.0875,0.093,0.0989,0.0986,0.0868,0.0735,0.0545,0.0448,0.0346,0.0315,0.0328,0.0318,0.0316,0.0301,0.03,0.0306,0.0306,0.0306,0.0306,0.0306,0.0418,0.0454,0.0512,0.0586,0.0657,0.0746,0.0812,0.0895,0.0985,0.1066,0.1065,0.1058,0.0915,0.0675,0.0509,0.0335,0.0352,0.0273,0.0275,0.0277,0.0278,0.0275,0.0258,0.0258,0.0257,0.0257,0.0257,0,0.0456,0.0496,0.0562,0.065,0.0724,0.076,0.0879,0.0942,0.1044,0.1103,0.1139,0.0994,0.0853,0.0682,0.0435,0.0283,0.0268,0.0216,0.0236,0.024,0.0242,0.0242,0.0212,0.0211,0.0211,0.021,0,0,0.0477,0.0539,0.0569,0.0688,0.0751,0.0852,0.0919,0.1009,0.1072,0.1115,0.111,0.1096,0.0907,0.071,0.0512,0.0364,0.0328,0.0323,0.038,0.0431,0.0435,0.0299,0.0306,0,0,0,0,0]}],[{"header":{"parameterUnit":"m.s-1","parameterCategory":2,"la1":30.2991,"la2":30.254,"lo1":-89.0895,"lo2":-89.0444,"dy":0.0017,"dx":0.0017,"nx":28,"ny":28,"refTime":"2023-09-09T21:00:00:Z","depth":"4","parameterNumber":2,"parameterNumberName":"U-component_of_CURRENTS"},"data":[0,0,0,0,0,0,0,0,0,0,0,0,0,0,0,0,0,0,0,0,0,0,0,0,0,0,0,0,0,0,0,0,0,0,0,0,0,0,0,0,0,0,0,0,0,0,0,0,0,0,0,0,0,0,0,0,0,0,0.095,0.0951,0,0.1002,0.1002,0.1003,0.1039,0.104,0.104,0.1041,0.1091,0.1091,0.1092,0,0,0,0,0,0,0,0,0,0,0,0,0,0.0929,0.0929,0.095,0.0951,0.0951,0.1002,0.1002,0.1003,0.1039,0.104,0.104,0.1041,0.109,0.1091,0.1092,0,0,0,0,0,0,0,0,0,0,0,0,0,0.0954,0.0929,0.095,0.0977,0.098,0.1002,0.1002,0.1003,0.1039,0.104,0.104,0.1041,0.109,0.1091,0.1093,0.1088,0,0,0.1097,0.1097,0,0,0,0,0,0,0,0,0.0952,0.0954,0.0972,0.0975,0.0979,0.1016,0.1014,0.1032,0.1039,0.1015,0.1041,0.1041,0.1066,0.1069,0.1075,0.109,0.1093,0.1097,0.1098,0.1098,0.1099,0,0,0,0,0,0,0,0.095,0.0952,0.0969,0.0973,0.0977,0.1003,0.1006,0.1017,0.1035,0.1017,0.102,0.1028,0.1068,0.1074,0.1077,0.1093,0.1097,0.1098,0.1099,0.11,0.1178,0.118,0,0,0,0,0,0,0.0944,0.095,0.0967,0.097,0.0969,0.1003,0.1007,0.1002,0.1035,0.1041,0.1028,0.103,0.1071,0.1075,0.1079,0.1132,0.1098,0.11,0.11,0.1177,0.1179,0.118,0,0,0,0,0,0,0.0943,0.0944,0.0965,0.0964,0.0969,0.1002,0.0997,0.1003,0.1033,0.1043,0.1049,0.1054,0.1072,0.1077,0.1108,0.1132,0.11,0.1102,0.1176,0.1178,0.1179,0.1203,0,0,0,0,0,0,0.0942,0.0943,0.0952,0.0963,0.0968,0.0991,0.0997,0.1003,0.1036,0.104,0.1068,0.1072,0.1073,0.1106,0.1109,0.1134,0.1103,0.1174,0.1177,0.1179,0.12,0.1205,0.1209,0,0,0,0,0,0.0941,0.0945,0.0951,0.0954,0.0973,0.0992,0.0997,0.1023,0.1037,0.1052,0.1072,0.1072,0.1124,0.1108,0.1111,0.1137,0.1173,0.1176,0.1179,0.1198,0.1204,0.1209,0,0,0,0,0,0,0.0941,0.095,0.0957,0.0964,0.0983,0.0999,0.102,0.1035,0.1063,0.1072,0.1083,0.1088,0.1128,0.1129,0.1112,0.1169,0.1151,0.1154,0.1165,0.117,0.1175,0.1176,0.1104,0,0,0,0,0,0.0943,0.095,0.0963,0.0972,0.0982,0.1005,0.1022,0.1036,0.1057,0.1072,0.1093,0.1116,0.1139,0.1152,0.1171,0.1196,0.1206,0.1218,0.1222,0.1226,0.1231,0.1276,0.1284,0.1189,0.1189,0.1189,0,0,0.0945,0.0954,0.0957,0.0974,0.0991,0.1007,0.1017,0.1044,0.1062,0.1071,0.1112,0.1136,0.1151,0.1183,0.1201,0.1188,0.1256,0.1229,0.1232,0.1236,0.128,0.1289,0.1297,0.1191,0.1191,0.1191,0,0,0.0952,0.0961,0.0971,0.0987,0.1016,0.1025,0.1038,0.1066,0.1086,0.1122,0.1137,0.1176,0.1209,0.1226,0.1236,0.1278,0.1282,0.1289,0.1308,0.1351,0.1359,0.1366,0.1379,0.1387,0.1286,0.1286,0.1286,0,0.0958,0.0966,0.0979,0.0997,0.1011,0.1034,0.1049,0.1071,0.1109,0.1131,0.1141,0.1213,0.1229,0.1267,0.1284,0.1288,0.1304,0.1282,0.1356,0.1364,0.1371,0.1382,0.1391,0.1288,0.1287,0.1287,0.1287,0,0.0969,0.0984,0.0993,0.1016,0.1034,0.1051,0.1075,0.1106,0.1136,0.1163,0.1222,0.1249,0.1296,0.1306,0.1308,0.1366,0.1358,0.136,0.134,0.1382,0.1391,0.14,0.129,0.1289,0.1289,0.1288,0,0,0.0948,0.0991,0.0996,0.1013,0.1043,0.1058,0.109,0.1126,0.1163,0.1208,0.1259,0.1305,0.1338,0.1354,0.1368,0.1399,0.1459,0.1403,0.1404,0.1409,0.1541,0.1425,0.1423,0.1478,0.148,0.1482,0.1522,0,0.0952,0.0983,0.1003,0.1034,0.1047,0.1078,0.1107,0.1147,0.1191,0.1248,0.1288,0.1348,0.1349,0.1386,0.142,0.1459,0.1486,0.1447,0.1504,0.1506,0.1393,0.1431,0.1488,0.1529,0.1531,0.1532,0.1533,0,0.0948,0.0971,0.1002,0.1044,0.1055,0.1083,0.1138,0.1171,0.1244,0.1281,0.1344,0.1389,0.1453,0.1449,0.153,0.1509,0.1531,0.1547,0.1549,0.1439,0.1406,0.1483,0.1549,0.1548,0.1547,0.1546,0.1545,0,0.0918,0.0965,0.0991,0.1006,0.106,0.1091,0.1126,0.1192,0.1226,0.1319,0.1364,0.144,0.1494,0.1542,0.1586,0.1575,0.1659,0.1646,0.1554,0.1545,0.1627,0.1619,0.1701,0.1701,0.1701,0.17,0.17,0,0.0895,0.0917,0.0991,0.1004,0.1048,0.1092,0.1146,0.1194,0.1265,0.131,0.1393,0.1435,0.1527,0.1583,0.1608,0.1603,0.1683,0.1561,0.1554,0.1633,0.1626,0.1632,0.1623,0.1702,0.1702,0.1701,0.1701,0,0.0848,0.0894,0.0933,0.1007,0.1035,0.1072,0.1149,0.118,0.1263,0.1326,0.1362,0.1457,0.1525,0.1588,0.1663,0.1619,0.1635,0.1611,0.1683,0.1678,0.1484,0.1476,0.1509,0.1505,0.1502,0.15,0.1498,0,0.0826,0.0842,0.0933,0.096,0.0999,0.106,0.109,0.1171,0.1198,0.132,0.1337,0.1442,0.1496,0.1504,0.1573,0.16,0.1582,0.1568,0.1528,0.1477,0.1468,0.1465,0.1462,0.1493,0.1492,0.1491,0.149,0,0.0777,0.0823,0.0855,0.0917,0.0962,0.0996,0.1051,0.1064,0.1154,0.1246,0.1287,0.133,0.1392,0.1437,0.1467,0.1484,0.1567,0.1536,0.1542,0.1504,0.1458,0.1451,0.1451,0.148,0.1481,0.1482,0.1483,0,0.0751,0.0762,0.0816,0.0861,0.0909,0.0917,0.0955,0.0987,0.1028,0.1161,0.1171,0.1283,0.1376,0.1376,0.1407,0.1412,0.1389,0.1336,0.1352,0.1364,0.1297,0.1216,0.1161,0,0,0,0,0,0.0722,0.0723,0.0752,0.0789,0.0827,0.0859,0.0916,0.0951,0.1048,0.1046,0.1105,0.116,0.1206,0.1256,0.1235,0.1336,0.139,0.1302,0.1335,0.1421,0.1433,0.1367,0,0,0,0,0,0,0.0703,0.0723,0.0729,0.0717,0.0729,0.0755,0.0791,0.0853,0.0852,0.0964,0.0998,0.1084,0.1148,0.1217,0.1215,0.1229,0.1222,0.1369,0.1365,0.1414,0.1425,0.1435,0.1371,0,0,0,0,0]},{"header":{"parameterUnit":"m.s-1","parameterCategory":2,"la1":30.2991,"la2":30.254,"lo1":-89.0895,"lo2":-89.0444,"dy":0.0017,"dx":0.0017,"nx":28,"ny":28,"refTime":"2023-09-09T21:00:00:Z","depth":"4","parameterNumber":3,"parameterNumberName":"V-component_of_CURRENTS"},"data":[0,0,0,0,0,0,0,0,0,0,0,0,0,0,0,0,0,0,0,0,0,0,0,0,0,0,0,0,0,0,0,0,0,0,0,0,0,0,0,0,0,0,0,0,0,0,0,0,0,0,0,0,0,0,0,0,0,0,0.0201,0.0201,0,0.0202,0.0203,0.0203,0.0208,0.0208,0.0208,0.0208,0.0213,0.0213,0.0213,0,0,0,0,0,0,0,0,0,0,0,0,0,0.0166,0.0167,0.0201,0.0201,0.0201,0.0202,0.0203,0.0203,0.0208,0.0208,0.0208,0.0208,0.0213,0.0213,0.0213,0,0,0,0,0,0,0,0,0,0,0,0,0,0.0176,0.0167,0.0201,0.0203,0.0204,0.0202,0.0203,0.0203,0.0208,0.0208,0.0208,0.0208,0.0213,0.0213,0.0213,0.0211,0,0,0.0213,0.0213,0,0,0,0,0,0,0,0,0.0176,0.0178,0.0203,0.0203,0.0203,0.0205,0.0192,0.0206,0.0208,0.0206,0.0208,0.0208,0.021,0.0211,0.0211,0.0211,0.0212,0.0213,0.0213,0.0214,0.0214,0,0,0,0,0,0,0,0.0175,0.0177,0.0202,0.0203,0.0203,0.0192,0.0194,0.0195,0.0208,0.0207,0.0207,0.0206,0.021,0.0211,0.0211,0.0212,0.0213,0.0214,0.0214,0.0214,0.0234,0.0235,0,0,0,0,0,0,0.0176,0.0177,0.0202,0.0202,0.0189,0.0193,0.0195,0.0204,0.0208,0.0208,0.0206,0.0207,0.0211,0.0211,0.0211,0.0233,0.0214,0.0214,0.0214,0.0234,0.0234,0.0235,0,0,0,0,0,0,0.0176,0.0179,0.0202,0.0188,0.019,0.0193,0.0204,0.0204,0.0206,0.0208,0.0208,0.0208,0.0211,0.0211,0.0222,0.0232,0.0214,0.0214,0.0233,0.0234,0.0234,0.0261,0,0,0,0,0,0,0.0175,0.0179,0.0187,0.0189,0.0191,0.0207,0.0204,0.0204,0.0205,0.0206,0.0209,0.0209,0.0211,0.0222,0.0222,0.0232,0.0214,0.0232,0.0233,0.0234,0.0259,0.0262,0.0265,0,0,0,0,0,0.0174,0.0185,0.0187,0.019,0.0203,0.0208,0.0208,0.021,0.0205,0.0211,0.0215,0.0209,0.0228,0.0222,0.0222,0.0233,0.0232,0.0233,0.0234,0.0258,0.0262,0.0265,0,0,0,0,0,0,0.0171,0.0187,0.0189,0.0204,0.0208,0.0209,0.0214,0.021,0.0216,0.0219,0.0216,0.0217,0.023,0.0227,0.0221,0.0241,0.0229,0.023,0.0247,0.025,0.0253,0.0254,0.0214,0,0,0,0,0,0.0175,0.0191,0.0197,0.0209,0.0213,0.0212,0.0213,0.0215,0.0219,0.0222,0.0223,0.0227,0.0234,0.0239,0.0243,0.0253,0.0237,0.026,0.0263,0.0265,0.0266,0.0247,0.0248,0.0238,0.0238,0.0238,0,0,0.0176,0.0187,0.0195,0.021,0.0213,0.0224,0.0214,0.0221,0.0231,0.0221,0.0237,0.0235,0.0238,0.0253,0.0258,0.0253,0.0259,0.0267,0.0269,0.0269,0.0249,0.0249,0.025,0.0239,0.0239,0.0239,0,0,0.0186,0.0198,0.0214,0.0222,0.0231,0.0234,0.0235,0.0239,0.0244,0.0256,0.0253,0.0258,0.0267,0.0273,0.0276,0.0295,0.0273,0.0296,0.0314,0.0296,0.0296,0.0297,0.0276,0.0274,0.03,0.03,0.03,0,0.0187,0.0211,0.0217,0.0233,0.0243,0.0239,0.0255,0.0259,0.0265,0.0272,0.0267,0.0278,0.0277,0.0295,0.0304,0.0301,0.0285,0.0302,0.0299,0.0299,0.0299,0.0277,0.0275,0.0301,0.0301,0.0301,0.0301,0,0.0208,0.0228,0.0237,0.0261,0.0271,0.0285,0.0293,0.0301,0.0303,0.0304,0.0318,0.0316,0.0323,0.0323,0.032,0.0324,0.031,0.0302,0.0289,0.0301,0.0278,0.0275,0.0303,0.0303,0.0302,0.0302,0,0,0.0212,0.0246,0.0251,0.0271,0.029,0.0303,0.0321,0.0338,0.0352,0.0352,0.0366,0.0372,0.0363,0.0366,0.0359,0.0344,0.0327,0.0325,0.0323,0.0302,0.0282,0.0273,0.0269,0.0315,0.0315,0.0315,0.0266,0,0.0229,0.0265,0.0278,0.0315,0.0336,0.0346,0.0365,0.0379,0.0384,0.0395,0.0388,0.0399,0.0382,0.0387,0.0369,0.034,0.032,0.0341,0.0275,0.0273,0.0262,0.0266,0.0314,0.0264,0.0263,0.0263,0.0262,0,0.0249,0.0273,0.0311,0.0353,0.0364,0.0384,0.0418,0.0436,0.0446,0.0448,0.0449,0.0439,0.043,0.0408,0.0357,0.037,0.0329,0.0298,0.0295,0.0276,0.0259,0.0249,0.0256,0.0257,0.0257,0.0258,0.0258,0,0.0257,0.03,0.0334,0.0348,0.0388,0.0411,0.0435,0.0454,0.0477,0.0483,0.0494,0.0472,0.0468,0.0414,0.0357,0.0354,0.029,0.0278,0.0229,0.0228,0.0238,0.0238,0.0233,0.0233,0.0233,0.0234,0.0234,0,0.0274,0.0304,0.0344,0.0364,0.0411,0.0433,0.0478,0.0493,0.0517,0.0547,0.0525,0.0532,0.0468,0.0427,0.0364,0.0291,0.0294,0.0231,0.0216,0.025,0.0253,0.0235,0.0236,0.0232,0.0232,0.0232,0.0233,0,0.0281,0.0304,0.0349,0.0397,0.0418,0.0453,0.0515,0.0545,0.0562,0.0598,0.0604,0.0577,0.0524,0.0455,0.0365,0.0307,0.0233,0.0204,0.0248,0.0236,0.0179,0.0182,0.0142,0.0141,0.0141,0.014,0.014,0,0.0288,0.0311,0.0373,0.0404,0.043,0.0486,0.0527,0.0565,0.0597,0.0625,0.0641,0.0604,0.0576,0.0446,0.0363,0.0242,0.0222,0.0176,0.0174,0.0181,0.017,0.0174,0.0177,0.0139,0.0139,0.0138,0.0138,0,0.0299,0.0321,0.0358,0.0421,0.0471,0.053,0.059,0.0615,0.0659,0.0675,0.067,0.0611,0.0549,0.0444,0.0354,0.0265,0.0202,0.0169,0.017,0.0167,0.0177,0.0167,0.0171,0.0136,0.0137,0.0137,0.0137,0,0.0308,0.0332,0.038,0.0438,0.05,0.0559,0.0591,0.0633,0.0667,0.0695,0.0687,0.0626,0.059,0.0456,0.0372,0.0287,0.0258,0.0217,0.0214,0.0215,0.025,0.0274,0.025,0,0,0,0,0,0.0316,0.0345,0.0395,0.0459,0.0521,0.056,0.0628,0.0654,0.0693,0.0695,0.0695,0.0639,0.0517,0.0461,0.0375,0.035,0.0238,0.0243,0.0187,0.0125,0.0127,0.0155,0,0,0,0,0,0,0.032,0.0366,0.0391,0.0466,0.0511,0.0583,0.0627,0.0655,0.0655,0.0677,0.0614,0.0598,0.0481,0.0566,0.0367,0.0342,0.0289,0.0194,0.0191,0.0124,0.0126,0.0128,0.0157,0,0,0,0,0]}]]